ROMMA est une association bénévole à but non lucratif. Votre soutien est indispensable : ADHERER à ROMMA ou FAIRE un DON

Le Versoud - (38, Isère)

Vallée du Grésivaudan (220 m)   Longitude: 05° 51' 44" E   Latitude: 45° 13' 06" N Station partenaire n°6
 

Détail journalier du     <<     >>

Température Humidité Pression Vent Dir Rafale Dir. rafale Ensol.
Heure (°C) (%) (hPa) (km/h) (km/h) (min)
01:00 23.276101800---0
02:00 22.278101900---0
03:00 21.280101900---0
04:00 20.782101900---0
05:00 20.481101900---0
06:00 19.485101900---0
07:00 19.385101900---0
08:00 22.074101900---35
09:00 25.062101900---60
10:00 26.355101802NNO60
11:00 28.744101803NNO60
12:00 30.443101703N60
13:00 32.540101605N60
14:00 33.635101605N60
15:00 35.132101505NNO60
16:00 35.627101506NNO50
17:00 36.628101406NNO50
18:00 35.439101403NNO20
19:00 33.9411013011ESE0
20:00 31.648101402ESE0
21:00 29.858101402ESE10
22:00 28.252101400---0
23:00 26.456101500---0
minuit 25.163101500---0

Graphique du 23-07-2019

 

Serveur OMMA